Location: Luz Observatory
(34.5000°N, 117.2833°W)
Time: 07:47:50
(UTC-07:00)

Daily predictions for brighter satellites

Satellite Brightness Start Highest point End
(mag) Time Altitude Azimuth Time Altitude Azimuth Time Altitude Azimuth
H-2A R/B 3.9 19:02:41 10° WSW 19:07:29 58° S 19:42:39 10° ESE
Atlas Centaur 2 3.0 19:50:44 10° SW 19:56:36 48° SSE 20:03:52 10° E
Lacrosse 4 Rocket 2.5 19:53:41 10° N 19:57:35 31° ENE 20:01:30 10° ESE
Cosmos 2263 Rocket 3.5 19:53:37 10° N 19:57:52 22° ENE 20:02:07 10° ESE
Helios 1B rocket 3.6 19:56:33 10° NE 19:59:49 23° E 20:03:04 10° SSE
GRACE-1 4.1 19:57:23 10° NNE 20:00:02 44° E 20:02:39 10° SSE
GRACE-2 4.1 19:57:46 10° NNE 20:00:24 44° E 20:03:01 10° SSE
BREEZE-M DEB (TANK) 3.5 19:57:59 10° SW 20:01:50 81° SE 20:08:35 10° ENE
ALOS 2.6 19:57:47 10° S 20:02:25 73° WSW 20:07:06 10° NNW
Resurs 01 Rocket 1.8 19:58:23 10° SSE 20:02:44 56° ENE 20:07:06 10° N
H-2A R/B 2.8 19:59:15 10° SSE 20:03:07 68° ENE 20:06:58 10° N
ATLAS CENTAUR R/B 2.8 20:01:48 10° NW 20:04:34 49° SW 20:11:17 10° SSE
Cosmos 2322 Rocket 2.1 19:59:09 10° SSW 20:04:43 74° ESE 20:10:19 10° NNE
Cosmos 1869 3.2 20:01:02 10° S 20:04:55 66° E 20:08:50 10° NNE
FALCON 9 R/B 0.3 20:03:15 10° W 20:06:33 85° S 20:08:43 10° E
Cosmos 1825 3.0 20:07:06 10° NNE 20:10:32 31° E 20:13:56 10° SE
Intercosmos 25 Rocket 3.6 20:08:53 10° SSE 20:11:49 36° E 20:15:18 10° NNE
COSMOS 2428 4.4 20:10:54 10° ESE 20:12:23 11° E 20:14:07 10° E
Cosmos 2360 Rocket 2.9 20:08:21 10° SSE 20:13:11 30° ESE 20:18:04 10° NE
OAO 3 Rocket 3.3 20:08:35 10° W 20:13:27 84° N 20:18:18 11° E
SJ-6B 4.1 20:09:46 10° S 20:13:31 44° W 20:17:23 10° NNW
Cosmos 1980 Rocket 4.4 20:09:07 10° WSW 20:14:05 31° WNW 20:19:06 10° N
USA 267 4.3 20:10:24 10° NNE 20:16:39 50° NW 20:22:54 10° WSW
Spot 2 Rocket 3.5 20:13:23 10° SSE 20:18:28 77° ENE 20:23:33 10° N
Cosmos 1503 Rocket 4.1 20:14:57 10° N 20:20:07 58° ENE 20:25:13 10° SSE
Cosmos 2142 Rocket 4.5 20:19:13 10° S 20:25:20 88° E 20:31:31 10° N
Cosmos 1408 2.7 20:21:48 10° N 20:25:24 52° E 20:28:49 11° SSE
Cosmos 1354 Rocket 4.0 20:20:50 10° NNW 20:26:05 68° ENE 20:31:17 10° SSE
Cosmos 2322 4.2 20:23:25 10° SSE 20:28:33 35° ESE 20:33:42 10° NE
CZ-2D R/B 3.3 20:26:02 10° S 20:29:55 83° WSW 20:33:49 10° NNW
ATLAS 5 CENTAUR R/B 3.5 20:25:44 10° N 20:31:03 30° NE 20:35:10 16° ESE
Meteor 1-29 3.4 20:28:30 10° NNE 20:31:48 40° E 20:35:02 10° S
SL-16 R/B 2.8 20:29:09 10° SSW 20:34:44 61° WNW 20:40:21 10° NNE
Cosmos 1315 Rocket 4.2 20:32:39 10° NNW 20:36:26 39° W 20:40:09 10° SSW
Envisat 3.2 20:34:33 15° SE 20:38:38 50° ENE 20:43:32 10° N
Cosmos 1733 Rocket 3.2 20:34:37 10° N 20:39:00 54° E 20:42:21 16° SSE
Cosmos 2026 Rocket 3.9 20:34:32 10° N 20:40:46 81° E 20:46:52 10° S
Cosmos 1933 3.3 20:38:05 10° S 20:42:04 64° E 20:46:03 10° NNE
Cosmos 1862 Rocket 3.5 20:40:04 10° S 20:44:30 77° E 20:48:59 10° N
USA 186 1.9 20:42:58 15° S 20:45:03 59° W 20:47:55 10° NNW
Helios 1A 2.9 20:42:30 16° SSE 20:45:48 72° ENE 20:50:02 10° N
USA 234 4.1 20:44:02 16° E 20:48:34 38° NE 20:54:28 10° NNW
CZ-4B DEB 2.7 20:49:11 40° SE 20:49:56 53° ENE 20:52:55 10° N
ERBS 4.0 20:48:05 10° WNW 20:51:09 29° WSW 20:53:16 16° S
SEDSat Delta rocket 3.5 20:48:12 10° W 20:53:14 64° S 20:56:22 27° ESE
SJ-11-01 4.3 20:52:17 23° SSE 20:55:04 63° ENE 20:59:42 10° N
YAOGAN 6 3.5 20:55:57 30° E 20:56:10 30° ENE 20:59:23 10° NNE
Cosmos 1844 Rocket 4.4 20:56:28 10° NNE 20:59:39 15° NE 21:00:56 14° ENE
Cosmos 1862 3.4 20:58:17 10° N 21:02:19 77° W 21:04:50 22° S
ERS-1 Rocket 3.5 21:02:03 32° ESE 21:03:35 40° ENE 21:08:14 10° N
Cosmos 1703 Rocket 3.9 21:04:06 38° SE 21:05:05 45° E 21:09:18 10° NNE
SeaSat 1 4.3 21:07:43 14° ENE 21:08:38 15° NE 21:11:24 10° NNE
Centaur AC-42 4.0 20:54:17 10° W 21:12:58 31° SSW 21:16:02 22° SSE
Cosmos 2219 Rocket 3.7 21:19:11 20° ENE 21:19:11 20° ENE 21:21:27 10° NE
Sakura Rocket 3.7 21:14:00 10° WSW 21:16:55 33° S 21:16:55 33° S
Meteor 2-10 Rocket 3.8 21:12:11 10° S 21:18:00 84° W 21:23:50 10° N
Cosmos 1939 Rocket 3.1 21:16:28 35° S 21:18:02 69° WSW 21:22:03 10° NNW
Meteor 1-26 Rocket 4.2 21:16:13 13° S 21:21:19 87° E 21:27:08 10° N
Cosmos 2221 Rocket 3.6 21:25:39 57° E 21:25:39 57° E 21:29:50 10° NNE
NOSS 3-1 (C) 3.9 21:29:43 36° E 21:29:43 36° E 21:34:08 10° NE
SPOT 5 3.6 21:29:53 35° ENE 21:29:53 35° ENE 21:33:51 10° N
Cosmos 2266 Rocket 4.0 21:23:20 10° N 21:29:38 68° E 21:31:44 43° SSE
USA 229 DEB 3.9 21:27:04 10° SW 21:33:50 71° WNW 21:40:45 10° NNE
USA 229 3.9 21:27:09 10° SW 21:33:56 72° WNW 21:40:52 10° NNE
Lacrosse 4 Rocket 3.7 21:32:51 10° WNW 21:36:04 20° WSW 21:38:25 14° SW
Cosmos 1777 Rocket 4.5 21:33:22 10° N 21:38:19 43° ENE 21:38:19 43° ENE
Cosmos 2263 Rocket 3.0 21:36:42 10° NW 21:41:58 44° WSW 21:44:21 28° SSW
Atlas Centaur 2 2.8 21:39:00 10° W 21:45:54 65° S 21:47:50 50° SE
Cosmos 2237 4.5 21:40:55 10° SSW 21:46:36 68° WNW 21:52:19 10° NNE
H-2A R/B 4.4 21:51:22 14° NE 21:51:22 14° NE 21:52:22 10° NNE
Meteor 1-10 Rocket 4.4 21:54:36 60° ENE 21:54:36 60° ENE 22:00:02 10° NNE
COSMOS 2428 2.8 21:52:40 27° SSW 21:55:52 76° WNW 22:01:35 10° NNE
OAO 3 Rocket 3.7 21:52:09 10° W 21:56:07 51° WSW 21:56:07 51° WSW
Cosmos 2360 Rocket 3.9 21:52:05 10° WSW 21:57:03 31° WNW 22:02:04 10° N
MetOp-B 4.0 22:01:42 79° SW 22:01:54 80° WSW 22:07:16 10° NNW
MOS 1-B Rocket 3.8 22:03:26 74° E 22:03:36 75° ENE 22:09:14 10° N
Milstar 3 3.6 21:59:08 10° W 22:05:17 33° SSW 22:05:17 33° SSW
NOAA 11 4.3 22:07:24 67° SW 22:07:45 69° WSW 22:13:14 10° NNW
Cosmos 968 Rocket 4.3 22:03:03 10° NNW 22:07:58 43° WSW 22:08:32 42° WSW
CZ-4C R/B 4.1 22:02:11 10° N 22:08:14 28° NE 22:09:38 26° ENE
Cosmos 1844 4.4 22:07:13 10° N 22:11:46 43° NE 22:11:46 43° NE
Meteor 1-25 Rocket 4.2 22:07:18 10° NNW 22:12:49 72° W 22:12:49 72° W
USA 245 4.2 22:14:24 77° WNW 22:14:24 77° WNW 22:19:16 10° NNW
Nadezhda 2 Rocket 4.4 22:08:45 10° N 22:15:13 86° W 22:15:36 80° SSW
ATLAS 5 CENTAUR R/B 3.1 22:10:01 10° NW 22:15:56 46° WSW 22:16:45 44° SW
Terra 3.6 22:19:36 23° NNE 22:19:36 23° NNE 22:21:45 10° N
ARGOS 3.3 22:19:22 68° WNW 22:19:22 68° WNW 22:24:15 10° NNW
H-2A R/B 2.8 22:21:01 44° N 22:21:01 44° N 22:24:25 10° N
Meteor 1-20 Rocket 4.5 22:19:08 10° NNW 22:24:25 63° W 22:24:25 63° W
Okean 2 Rocket 4.4 22:21:45 10° NNW 22:24:50 38° NW 22:24:50 38° NW
S3M 4.5 22:32:34 50° NNE 22:32:34 50° NNE 22:37:11 10° N
USA 234 3.4 22:31:22 58° SW 22:31:22 58° SW 22:37:46 10° NW
Cosmos 2237 Rocket 3.6 22:37:35 29° NNE 22:37:35 29° NNE 22:40:15 10° NNE
Cosmos 2333 Rocket 3.0 22:37:14 47° N 22:37:14 47° N 22:41:18 10° NNE
Cosmos 2278 Rocket 3.4 22:37:47 10° N 22:41:25 35° NNE 22:41:25 35° NNE
Cosmos 1844 Rocket 3.4 22:38:29 10° NNW 22:42:37 49° NW 22:42:37 49° NW
SeaSat 1 3.8 22:47:30 37° NW 22:47:30 37° NW 22:50:33 10° NNW
Cosmos 2219 Rocket 3.5 23:00:48 36° WNW 23:00:48 36° WNW 23:05:47 10° N
Atlas Centaur 2 4.5 23:28:01 10° W 23:30:28 22° W 23:30:28 22° W
ATLAS 2AS CENTAUR R/B 4.1 23:39:39 35° NE 23:39:39 35° NE 23:44:00 10° NE
